Marshfield, WI

4:35 AM CST on December 10, 2019 (GMT -0600)
Marshfield Municipal

Weather History for KMFI - November, 2019

Change the Weather History Date:

Tuesday, November 19, 2019

  Actual Average Record
Temperature  
Mean Temperature 31 °F -  
Max Temperature 34 °F 40 °F 66 °F (1930)
Min Temperature 28 °F 24 °F -4 °F (1914)
Degree Days  
Heating Degree Days 34    
Moisture  
Dew Point 28 °F    
Average Humidity 87    
Maximum Humidity 96    
Minimum Humidity 82    
Precipitation  
Precipitation 0.00 in - - ()
Sea Level Pressure  
Sea Level Pressure 29.85 in    
Wind  
Wind Speed 3 mph ()    
Max Wind Speed 6 mph    
Max Gust Speed -    
Visibility 5.5 miles    
Events Fog    
Averages and records for this station are not official NWS values.
T = Trace of Precipitation, MM = Missing Value Source: Averaged Metar Reports

Daily Weather History Graph

Daily Weather History Graph

Search for Another Location

Airport or City:

Astronomy

Nov. 19, 2019 Rise Set
Actual Time 7:02 AM CST 4:29 PM CST
Civil Twilight 6:30 AM CST 5:01 PM CST
Nautical Twilight 5:54 AM CST 5:36 PM CST
Astronomical Twilight 5:20 AM CST 6:11 PM CST
Moon 11:27 PM CST (11/19) 1:11 PM CST (11/19)
Length of Visible Light 10h 30m
Length of Day
9h 26m
Waning Gibbous, 51% of the Moon is Illuminated
Nov 19
Waning Gibbous
Nov 19
Last Quarter
Nov 26
New
Dec 4
First Quarter
Dec 11
Full

Hourly Weather History & Observations

Time (CST) Temp. Windchill Dew Point Humidity Pressure Visibility Wind Dir Wind Speed Gust Speed Precip Events Conditions
12:54 AM 28.9 °F 25.2 °F 26.1 °F 89% 29.75 in 9.0 mi WSW 3.5 mph - N/A   Overcast
1:54 AM 28.9 °F 25.2 °F 26.1 °F 89% 29.74 in 9.0 mi ESE 3.5 mph - N/A   Overcast
2:54 AM 28.9 °F - 26.1 °F 89% 29.74 in 9.0 mi Calm Calm - N/A   Overcast
5:39 AM 28.9 °F 22.8 °F 26.1 °F 89% 29.70 in 7.0 mi East 5.8 mph - N/A   Overcast
5:54 AM 28.9 °F 25.2 °F 26.1 °F 89% 29.75 in 7.0 mi East 3.5 mph - N/A   Overcast
6:39 AM 28.9 °F 23.9 °F 26.1 °F 89% 29.71 in 5.0 mi East 4.6 mph - N/A   Overcast
6:54 AM 28.9 °F 25.2 °F 26.1 °F 89% 29.77 in 5.0 mi SSE 3.5 mph - N/A   Overcast
7:54 AM 28.9 °F 23.9 °F 27.0 °F 92% 29.78 in 4.0 mi ESE 4.6 mph - N/A   Overcast
8:20 AM 30.0 °F 25.2 °F 27.0 °F 88% 29.74 in 5.0 mi East 4.6 mph - N/A   Overcast
8:54 AM 30.0 °F 25.2 °F 27.0 °F 88% 29.80 in 5.0 mi ESE 4.6 mph - N/A   Overcast
9:49 AM 30.2 °F 24.3 °F 26.6 °F 86% 29.76 in 6.0 mi East 5.8 mph - N/A   Overcast
9:54 AM 30.9 °F 25.2 °F 27.0 °F 85% 29.81 in 6.0 mi ESE 5.8 mph - N/A   Overcast
10:54 AM 30.9 °F 26.2 °F 28.0 °F 89% 29.82 in 5.0 mi ESE 4.6 mph - N/A   Overcast
11:54 AM 33.1 °F 30.0 °F 28.0 °F 82% 29.82 in 5.0 mi South 3.5 mph - N/A   Haze
12:54 PM 34.0 °F 28.8 °F 28.9 °F 82% 29.82 in 5.0 mi South 5.8 mph - N/A   Haze
1:54 PM 34.0 °F 31.0 °F 28.9 °F 82% 29.85 in 5.0 mi SW 3.5 mph - N/A   Haze
2:54 PM 34.0 °F 31.0 °F 28.9 °F 82% 29.86 in 5.0 mi SW 3.5 mph - N/A   Haze
3:54 PM 34.0 °F - 28.9 °F 82% 29.89 in 5.0 mi Calm Calm - N/A   Haze
4:54 PM 34.0 °F - 28.9 °F 82% 29.90 in 7.0 mi Calm Calm - N/A   Overcast
5:54 PM 33.1 °F - 28.9 °F 85% 29.92 in 6.0 mi Calm Calm - N/A   Overcast
6:54 PM 34.0 °F - 28.9 °F 82% 29.93 in 6.0 mi Calm Calm - N/A   Haze
7:17 PM 33.1 °F - 28.9 °F 85% 29.88 in 7.0 mi Calm Calm - N/A   Overcast
7:29 PM 33.1 °F - 28.9 °F 85% 29.88 in 6.0 mi Calm Calm - N/A   Overcast
7:54 PM 33.1 °F - 28.9 °F 85% 29.94 in 6.0 mi Calm Calm - N/A   Overcast
8:19 PM 33.1 °F - 28.9 °F 85% 29.90 in 6.0 mi Calm Calm - N/A   Overcast
8:54 PM 33.1 °F - 30.0 °F 89% 29.96 in 6.0 mi Calm Calm - N/A   Overcast
9:22 PM 34.0 °F - 30.0 °F 85% 29.92 in 6.0 mi Calm Calm - N/A   Overcast
9:54 PM 34.0 °F - 30.0 °F 85% 29.97 in 6.0 mi Calm Calm - N/A   Overcast
10:39 PM 33.1 °F 28.7 °F 32.0 °F 96% 29.95 in 1.8 mi WSW 4.6 mph - N/A   Overcast
10:54 PM 33.1 °F - 32.0 °F 96% 29.99 in 0.2 mi Calm Calm - N/A Fog Fog
11:54 PM 33.1 °F 30.0 °F 32.0 °F 96% 30.01 in 0.2 mi WSW 3.5 mph - N/A Fog Fog